www.pogodaiklimat.ru

Погода и климат >> Архив погоды >> Россия >> Магаданская область >> Мыс Алевина


ПОГОДА на Мысе Алевина

  • Прогноз погоды на Мысе Алевина
  • Монитор погоды на Мысе Алевина
  • Климат города

АРХИВ ПОГОДЫ на Мысе Алевина

Время (UTC), дата Ветер
(напр.,м/с)
 
Видим.   Явления Облачность Т
(С)
Тd
(С)
f
(%)
Тe
(С)
Тes
(С)
Комфортность P
(гПа)
Po
(гПа)
Тmin
(С)
Tmax
(С)
R
(мм)
R24
(мм)
S
(см)
06 12.08 СЗ 5 10 км туман на расстоянии 8/8 600 м
[Cu Sc]
+13.4 +13.2 99 +11 +12 1014.2 1006.4
09 12.08 СЗ 4 500 м туман {дождь} ?/? +12.4 +12.2 99 +10 +10 1013.7 1005.8 +13.9 0.0
12 12.08 СЗ 4 500 м туман {дождь} ?/? +12.2 +12.0 99 +10 +10 1013.7 1005.8
15 12.08 С 4 200 м туман ?/? +11.5 +11.5 100 +9 +9 1012.6 1004.8
18 12.08 СЗ 5 200 м туман ?/? +12.8 +12.8 100 +10 +10 1011.4 1003.6
21 12.08 СЗ 5 500 м слабая морось {туман} туман ?/? +12.4 +12.2 99 +10 +10 1011.2 1003.4 +10.8 0.4
00 13.08 СЗ 6 200 м туман {морось} ?/? +12.3 +12.1 99 +9 +9 1010.7 1002.9
03 13.08 СЗ 7 200 м туман ?/? +12.9 +12.7 99 +10 +10 1009.6 1001.8
06 13.08 СЗ 7 500 м туман ?/? +13.1 +12.9 99 +10 +10 1008.2 1000.4
09 13.08 СЗ 5 200 м слабая морось {туман} туман ?/? +12.3 +12.1 99 +10 +10 1009.0 1001.2 +13.2 0.3
12 13.08 СЗ 4 200 м слабая морось {туман} туман ?/? +12.9 +12.9 100 +11 +11 1009.3 1001.5
15 13.08 ЮВ 1 200 м туман {ливн. осадки, морось} ?/? +12.9 +12.9 100 +13 +13 1009.7 1001.9
18 13.08 ЮВ 7
{10}
200 м слабый ливневой дождь {морось} туман ?/? +11.4 +11.4 100 +8 +8 1010.6 1002.8
21 13.08 В 6
{11}
500 м туман {ливн. осадки} ?/? +9.2 +9.2 100 +5 +5 1012.5 1004.6 +8.5 5
00 14.08 В 2
{10}
500 м слабый ливневой дождь {туман} туман ?/? +10.7 +10.5 99 +9 +9 1013.8 1005.9
03 14.08 В 4 10 км туман на расстоянии {ливн. осадки} 10/10 300 м
[St]
+10.8 +10.6 99 +8 +8 1015.4 1007.5
06 14.08 В 4 50 км 10/10 300 м
[St]
+10.2 +9.4 95 +7 +7 1016.8 1008.9
09 14.08 В 3 10 км слабый ливневой дождь 10/10 300 м
[St]
+9.6 +8.6 93 +7 +7 1018.5 1010.5 +11.6 7
12 14.08 штиль 0 10 км слабый ливневой дождь 10/10 300 м
[St]
+10.5 +9.7 95 +10 +10 1019.2 1011.3
15 14.08 С 2 500 м слабый ливневой дождь {туман} туман ?/? +11.3 +11.1 99 +10 +10 1019.4 1011.5
18 14.08 штиль 0 500 м туман {ливн. осадки} ?/? +10.2 +10.0 99 +9 +9 1020.0 1012.1
21 14.08 С 2 50 км в посл. час туман 10/10 300 м
[St]
+10.7 +10.5 99 +9 +9 1020.5 1012.6 +9.4 0.7
00 15.08 С 6 50 км {туман} 8/8 1000 м
[Sc]
+11.1 +10.3 95 +8 +9 1020.5 1012.6
03 15.08 С 3 50 км 9/9 1000 м
[Sc]
+11.9 +9.7 86 +10 +11 1020.5 1012.6
06 15.08 С 3 50 км 3/3 1000 м
[Sc]
+11.9 +10.2 89 +10 +13 1020.0 1012.1
09 15.08 С 2 50 км 3/3 1000 м
[Sc]
+11.6 +9.6 88 +10 +10 1020.4 1012.5 +13.4
12 15.08 В 3 50 км 3/1 1000 м
[Sc]
+11.4 +8.6 83 +10 +10 1021.4 1013.5
15 15.08 В 4 50 км ясно +9.9 +8.3 90 +7 +7 1021.3 1013.4
18 15.08 В 4 50 км 1/1 1000 м
[Sc]
+9.2 +7.1 87 +6 +6 1021.8 1013.8
21 15.08 ЮВ 4 50 км ясно +12.6 +8.2 75 +11 +12 1022.0 1014.1 +8.8
00 16.08 ЮВ 3 50 км 1/1 600 м
[Cu Sc]
+13.2 +7.5 68 +12 +19 1022.1 1014.2
03 16.08 ЮВ 3 50 км 1/1 600 м
[Cu Sc]
+13.2 +7.7 69 +12 +20 1021.8 1013.9
06 16.08 З 1 50 км 1/1 1000 м
[Sc]
+12.2 +9.2 82 +12 +17 1021.0 1013.1
09 16.08 СЗ 4 500 м туман ?/? +8.8 +8.4 97 +6 +6 1020.3 1012.3 +13.6
12 16.08 СЗ 6 500 м туман ?/? +8.9 +8.7 99 +5 +5 1020.2 1012.2
15 16.08 С 6 500 м туман ?/? +9.7 +9.1 96 +6 +6 1019.8 1011.9
18 16.08 СЗ 6
{11}
50 км {туман} 8/8 1000 м
[Sc]
+10.7 +8.9 89 +7 +7 1019.2 1011.3
21 16.08 СЗ 7 10 км туман на расстоянии 10/10 300 м
[St]
+10.5 +9.9 96 +7 +7 1018.8 1010.9 +8.0
00 17.08 СЗ 7 2000 м туман местами {морось} 10/10 300 м
[St]
+11.8 +11.2 96 +9 +9 1018.5 1010.6
03 17.08 СЗ 7 2000 м туман местами 10/10 300 м
[St]
+11.9 +11.3 96 +9 +9 1017.6 1009.7
06 17.08 СЗ 7-10
{11}
50 км {туман} 10/10 600 м
[Cu Sc]
+12.2 +10.1 87 +9 +9 1016.6 1008.7
09 17.08 СЗ 8
{10}
50 км 10/10 600 м
[Cu Sc]
+11.6 +10.0 90 +8 +8 1015.9 1008.0 +12.8 0.0
12 17.08 СЗ 6 200 м туман ?/? +11.0 +11.0 100 +8 +8 1015.5 1007.6
15 17.08 СЗ 7 200 м слабая морось {туман} туман ?/? +10.5 +10.5 100 +7 +7 1014.5 1006.6
18 17.08 СЗ 7
{11}
500 м слабая морось {туман} туман ?/? +10.2 +10.0 99 +6 +6 1014.1 1006.2
21 17.08 СЗ 7 500 м туман {морось} ?/? +10.2 +9.8 97 +6 +6 1013.7 1005.8 +9.4 3
00 18.08 СЗ 7
{10}
50 км {морось, туман} 10/10 300 м
[St]
+10.9 +10.3 96 +7 +7 1013.7 1005.8
03 18.08 СЗ 7
{10}
500 м туман {морось} ?/? +11.1 +10.9 99 +8 +8 1013.4 1005.5
06 18.08 СЗ 8-10
{10}
500 м туман {морось} ?/? +10.3 +10.1 99 +6 +6 1012.8 1004.9
09 18.08 СЗ 7
{10}
10 км дымка {туман} 10/10 300 м
[St]
+10.6 +10.4 99 +7 +7 1012.9 1005.0 +11.2 0.6
12 18.08 СЗ 6
{10}
10 км дымка 10/10 300 м
[St]
+9.4 +9.2 99 +6 +6 1012.7 1004.8
15 18.08 СЗ 7-10
{13}
500 м туман ?/? +10.6 +10.4 99 +7 +7 1012.3 1004.5
18 18.08 СЗ 6-10
{11}
10 км в посл. час туман 10/10 300 м
[St]
+9.6 +9.4 99 +6 +6 1012.2 1004.3
21 18.08 СЗ 8
{11}
500 м туман ?/? +10.3 +10.1 99 +6 +6 1012.5 1004.7 +8.9
00 19.08 СЗ 6
{11}
500 м туман ?/? +11.1 +10.9 99 +8 +8 1012.5 1004.7

 

Местоположение метеостанции Мыс Алевина (Магаданская область, Россия): широта 58.83 долгота 151.30 высота над уровнем моря 65 м.

В архиве по умолчанию представлена погода на Мысе Алевина за последнюю неделю. Архивные данные за месяц целиком и за предыдущие месяцы, начиная с января 2011 года, Вы можете получить, выбрав интересующий диапазон дат из раскрывающегося списка и нажав кнопку "Ввод!".

Внимание! Время в таблицах - всемирное. Для получения местного времени необходимо прибавить поправку, которая на Мысе Алевина равна 11 ч.

Смотрите также архив погоды в соседних городах и на ближайших метеорологических станциях:

Погода в Оле (Магаданская область, Россия) (81 км)
Погода в Магадане (Магаданская область, Россия) (87 км)
Погода в Армани (Магаданская область, Россия) (115 км)
Погода на Мысе Братьев (Магаданская область, Россия) (119 км)
Погода на Остров Спафарьева (Магаданская область, Россия) (137 км)
Погода в Палатке (Магаданская область, Россия) (143 км)
Погода в Талоне (Магаданская область, Россия) (185 км)
Погода в Брохово (Магаданская область, Россия) (188 км)
Погода в Мадауне (Магаданская область, Россия) (200 км)
Погода в Талае (Магаданская область, Россия) (262 км)

Пояснения к столбцам:

Ветер - указаны скорость ветра в м/с - средняя за 10 мин, порывы в срок и между сроками (в фигурных скобках) и направление, откуда дует ветер: С - северный, СВ - северо-восточный, В - восточный, ЮВ - юго-восточный, Ю - южный, ЮЗ - юго-западный, З - западный, СЗ - северо-западный.
Видимость - горизонтальная дальность видимости в метрах или километрах. При видимости от 1 до 10 км при отсутствии осадков обычно наблюдается дымка, при ухудшении видимости до 1 км и менее - туман. В сухую погоду видимость может ухудшаться дымом, пылью или мглою.
Явления - указаны атмосферные явления, наблюдавшиеся в срок или в последний час перед сроком; фигурными скобками обозначены явления, наблюдавшиеся между сроками (за 1-3 часа до срока); квадратными скобками обозначены град или гололедные отложения с указанием их диаметра в мм.
Облачность - указаны через наклонную черту общая и нижняя облачность в баллах и высота нижней границы облаков в метрах; квадратными скобками обозначены формы облаков: Ci - перистые, Cs - перисто-слоистые, Cc - перисто-кучевые, Ac - высококучевые, As - высокослоистые, Sc - слоисто-кучевые, Ns - слоисто-дождевые, Cu - кучевые, Cb - кучево-дождевые. Подробнее классификацию облаков см. в Атласе облаков (PDF).
T - Температура воздуха - температура, измеренная на высоте 2 м над землей.
Td - Температура точки росы - температура, при понижении до которой содержащийся в воздухе водяной пар достигнет насыщения.
f - Относительная влажность воздуха - влажноcть воздуха, измеренная на высоте 2 м над землей.
Te - Эффективная температура - температура, которую ощущает одетый по сезону человек в тени. Характеристика душности погоды. При расчете учитывается влияние влажности воздуха и скорости ветра на теплоощущения человека.
Tes - Эффективная температура на солнце - температура, которую ощущает человек, с поправкой на солнечный нагрев. Характеристика знойности погоды. Зависит от высоты солнца над горизонтом, облачности и скорости ветра. Ночью, в пасмурную погоду, а также при ветре 12 м/с и более поправка равна нулю.
P - Атмосферное давление - приведенное к уровню моря атмосферное давление.
Po - Атмосферное давление - измеренное на уровне метеостанции атмосферное давление.
Tmin - Минимальная температура - минимум температуры воздуха на высоте 2 м над землей.
Tmax - Максимальная температура - максимум температуры воздуха на высоте 2 м над землей.
R - Количество осадков - Количество выпавших осадков за период времени, мм. При наведении курсора мыши на число - период времени, за который выпало указанное количество осадков.
R24 - Количество осадков - Количество выпавших осадков за 24 часа, мм.
S - Снежный покров - Высота снежного покрова, см. При наведении курсора мыши на число - состояние снежного покрова и степень покрытия местности в баллах.